Tracking 18852 objects as of 24-Nov-2017
HD Live streaming from Space Station
objects crossing your sky now

SL-16 DEB

Track SL-16 DEB now!
10-day predictions


NORAD ID: 23094
Int'l Code: 1994-023F
Perigee: 847.0 km
Apogee: 1,140.7 km
Inclination: 71.0 °
Period: 104.8 minutes
Semi major axis: 7364 km
RCS: 0.0946 m2 (small)
Launch date: April 23, 1994
Source: Commonwealth of Independent States (former USSR) (CIS)
Launch site: TYURATAM MISSILE AND SPACE COMPLEX (TTMTR)

Note: This is SATELLITE DEBRIS
aabbcc
Your satellite tracking list
Your tracking list is empty




NASA's NSSDC Master Catalog

Two Line Element Set (TLE):
1 23094U 94023F   17327.59273299 -.00000026 +00000-0 +14606-4 0  9992
2 23094 070.9891 057.7508 0199378 119.4998 345.1330 13.73594615182008
Source of the keplerian elements: AFSPC